Location: Ferques
(50.8300°N, 1.7599°E)
Time: 14:01:45
(UTC+00:00)

CZ-4C R/B - Pass Details

Date: 19 May 2025
Orbit: 425 x 537 km, 98.0° (Epoch: 17 June)

Event Time Altitude Azimuth Distance (km) Brightness Sun altitude
Rises 22:47:32 0° 10° (N) 2,618 7.9 -17.9°
Reaches altitude 10° 22:49:41 10° 7° (N) 1,709 6.9 -18.0°
Maximum altitude 22:53:17 55° 289° (WNW) 586 3.6 -18.1°
Enters shadow 22:54:42 31° 225° (SW) 858 4.0 -18.2°
